This is the latest recevied weather packets stored in our database for station/object KO4DYK. If no packets are shown the sender has not sent any weather packets the latest 10 day(s).
| Time | Temp. | Humidity | Pressure | Rain* | Wind** | Luminosity | Snow |
|---|---|---|---|---|---|---|---|
| 1778190968 | 20° C | 51% | 1019.6 hPa | 0 mm | - | 411 W/m² | - |
| 1778190666 | 20° C | 52% | 1019.6 hPa | 0 mm | - | 416 W/m² | - |
| 1778190363 | 20° C | 52% | 1019.6 hPa | 0 mm | - | 423 W/m² | - |
| 1778190059 | 20° C | 51% | 1019.6 hPa | 0 mm | - | 440 W/m² | - |
| 1778189755 | 20.56° C | 50% | 1019.6 hPa | 0 mm | - | 451 W/m² | - |
| 1778189453 | 20.56° C | 52% | 1019.7 hPa | 0 mm | - | 465 W/m² | - |
| 1778189148 | 20° C | 51% | 1019.6 hPa | 0 mm | - | 507 W/m² | - |
| 1778188846 | 20° C | 48% | 1019.6 hPa | 0 mm | - | 521 W/m² | - |
| 1778188542 | 19.44° C | 50% | 1019.7 hPa | 0 mm | - | 503 W/m² | - |
| 1778188238 | 20° C | 50% | 1019.6 hPa | 0 mm | - | 515 W/m² | - |
| 1778187936 | 20° C | 50% | 1020 hPa | 0 mm | - | 534 W/m² | - |
| 1778187632 | 20° C | 51% | 1019.8 hPa | 0 mm | - | 511 W/m² | - |
| 1778187329 | 19.44° C | 49% | 1019.7 hPa | 0 mm | - | 570 W/m² | - |
| 1778187025 | 19.44° C | 50% | 1019.9 hPa | 0 mm | - | 536 W/m² | - |
| 1778186721 | 21.11° C | 50% | 1019.8 hPa | 0 mm | - | 632 W/m² | - |
| 1778186420 | 21.11° C | 52% | 1020.1 hPa | 0 mm | - | 634 W/m² | - |
| 1778186117 | 21.11° C | 48% | 1020 hPa | 0 mm | - | 610 W/m² | - |
| 1778185814 | 20.56° C | 51% | 1020.2 hPa | 0 mm | - | 597 W/m² | - |
| 1778185510 | 19.44° C | 52% | 1020 hPa | 0 mm | - | 670 W/m² | - |
| 1778185206 | 20.56° C | 49% | 1020.3 hPa | 0 mm | - | 674 W/m² | - |
| 1778184902 | 21.11° C | 49% | 1020.1 hPa | 0 mm | - | 493 W/m² | - |
| 1778184598 | 20° C | 51% | 1020.1 hPa | 0 mm | - | 700 W/m² | - |
| 1778184294 | 19.44° C | 51% | 1020.1 hPa | 0 mm | - | 713 W/m² | - |
| 1778183989 | 20° C | 51% | 1020.2 hPa | 0 mm | - | 727 W/m² | - |
| 1778183688 | 20° C | 50% | 1020.1 hPa | 0 mm | - | 610 W/m² | - |
* Rain latest hour (hover to see other rain measurements)
** Current wind speed in m/s (hover to see current wind gust speed)